Location: Bayview
(38.0070°N, 122.3188°W)
Time: 13:55:34
(UTC+00:00)

Envisat - Visible Passes

Search period start: 29 September 2022 00:00
Search period end: 09 October 2022 00:00
Orbit: 764 x 765 km, 98.2° (Epoch: 28 September)

Date Brightness Start Highest point End Pass type
(mag) Time Alt. Az. Time Alt. Az. Time Alt. Az.
29 Sep 5.2 11:33:38 10° NE 11:37:39 23° E 11:41:39 10° SSE visible
29 Sep 3.5 13:12:04 10° N 13:16:43 37° WNW 13:21:20 10° SW visible
30 Sep 2.9 12:34:48 10° NNE 12:39:54 85° WNW 12:44:58 10° SSW visible
01 Oct 4.2 11:58:06 10° NNE 12:02:54 41° E 12:07:40 10° SSE visible
02 Oct 5.5 11:22:17 10° NE 11:25:43 18° E 11:29:06 10° SE visible
02 Oct 3.2 13:00:04 10° N 13:04:56 48° WNW 13:09:46 10° SW visible
03 Oct 3.1 12:22:58 10° NNE 12:28:03 75° ESE 12:33:07 10° S visible
04 Oct 4.7 11:46:28 10° NE 11:50:59 32° E 11:55:29 10° SSE visible
04 Oct 3.9 13:25:36 10° NNW 13:29:51 28° WNW 13:34:06 10° SW visible
05 Oct 5.8 11:11:14 10° ENE 11:13:44 14° E 11:16:13 10° ESE visible
05 Oct 3.0 12:48:06 10° N 12:53:07 62° WNW 12:58:06 10° SSW visible
06 Oct 3.6 12:11:11 10° NNE 12:16:11 57° E 12:21:10 10° S visible
07 Oct 5.1 11:34:56 10° NE 11:39:03 25° E 11:43:10 10° SSE visible
07 Oct 3.6 13:13:30 10° N 13:18:05 35° WNW 13:22:39 10° SW visible
08 Oct 2.9 12:36:12 10° N 12:41:17 81° WNW 12:46:21 10° SSW visible
